Location: Goheenville
(40.9070°N, 79.3720°W)
Time: 21:58:18
(UTC-04:00)

Cosmos 1727 Rocket - Visible Passes

Search period start: 26 March 2015 00:00
Search period end: 05 April 2015 00:00
Orbit: 960 x 997 km, 82.9° (Epoch: 26 March)

Date Brightness Start Highest point End Pass type
(mag) Time Alt. Az. Time Alt. Az. Time Alt. Az.
26 Mar 4.3 20:22:40 10° SSW 20:28:49 74° W 20:35:01 10° N visible
26 Mar 7.2 22:14:31 10° WNW 22:15:37 10° WNW 22:16:15 10° NW visible
27 Mar 7.2 05:36:03 10° NE 05:38:54 14° ENE 05:42:06 10° E visible
27 Mar 5.4 20:49:36 10° SW 20:55:22 40° WNW 21:01:07 10° N visible
28 Mar 6.5 06:00:54 10° NNE 06:05:54 25° ENE 06:11:04 10° SE visible
28 Mar 6.5 21:17:23 10° WSW 21:22:09 22° WNW 21:26:46 10° NNW visible
29 Mar 5.4 06:26:39 10° N 06:32:38 45° ENE 06:38:40 10° SSE visible
29 Mar 4.2 19:56:22 10° S 20:02:32 82° W 20:08:46 10° N visible
29 Mar 7.2 21:46:55 10° W 21:49:13 12° WNW 21:51:06 10° NW visible
30 Mar 7.3 05:10:18 10° NE 05:12:31 12° ENE 05:15:08 10° E visible
30 Mar 5.3 20:23:11 10° SSW 20:29:03 44° WNW 20:34:56 10° N visible
31 Mar 6.6 05:34:48 10° NNE 05:39:34 23° ENE 05:44:31 10° ESE visible
31 Mar 6.5 20:50:48 10° SW 20:55:48 24° WNW 21:00:40 10° NNW visible
01 Apr 5.5 06:00:28 10° N 06:06:20 41° ENE 06:12:17 10° SE visible
01 Apr 7.2 21:19:50 10° W 21:22:48 13° WNW 21:25:26 10° NW visible
02 Apr 7.3 04:44:48 10° NE 04:46:07 11° ENE 04:47:53 10° ENE visible
02 Apr 4.4 06:26:35 10° N 06:32:53 75° E 06:39:13 10° SSE visible
03 Apr 6.6 05:08:43 10° NNE 05:13:13 21° ENE 05:17:56 10° ESE visible
03 Apr 6.4 20:24:15 10° SW 20:29:27 27° WNW 20:34:34 10° NNW visible
04 Apr 5.7 05:34:17 10° N 05:40:02 37° ENE 05:45:53 10° SE visible
04 Apr 7.2 20:52:55 10° W 20:56:25 15° WNW 20:59:37 10° NNW visible
